SPACEBEE-82 (47708 NORAD) Tracking and Keplerian Element Data

This shows tracking and keplerian element data for the satellite.

Feedback or suggestion? Click here.




ElementValue
Catalog47708
NameSPACEBEE-82
Epoch Orbit615
Epoch Day99.76514971
Epoch Year2021
RAAN174.7074
Inclination97.4564
Eccentricity0.0011925
Argument of Perigee148.2526
Mean Anonmoly211.9431
Mean Motion15.21476342
Decay Rate4.329E-05
L11 47708U 21015K 21099.76514971 .00004329 00000-0 19530-3 0 9995
L22 47708 97.4564 174.7074 0011925 148.2526 211.9431 15.21476342 6157

Live tracking and technical data element details for SPACEBEE-82 (NORAD 47708). SPACEBEE-82 can be tracked NOW for your location showing map with azimuth and elevation plus other details from your city location.

Track the satellite on the map from your city or location and see movement details for azimuth, elevation, latitude, longitude, range, height, and movement on the map or in text.







IsCatalogInMostPopularTable: catalog: 47708, numindb: 12
Update: records affected: 1



GetName: 47708 SPACEBEE-82

Hit Count: updated at: Sat, 10 Apr 2021 18:20:09 GMT